TPC2112 KINW-KTUS

Flight info

Callsign TPC2112
Flight time N/A
Altitude 12500
Route VFR WEST APPROACH TO KTUS FROM KRYN
Aircraft C210/L-V/N

Departure

Time 2026-04-24 00:20
Airport Winslow Lindbergh Regional Airport (KINW)

Arrival

Time N/A
Airport Tucson International Airport (KTUS)
Time Latitude Longitude Altitude Speed Heading
2026-04-23 23:58 35.02221 -110.71767 4887 ft 0 kts 29°
2026-04-24 00:16 35.02229 -110.71760 4887 ft 4 kts 30°
2026-04-24 00:16 35.02270 -110.71748 4892 ft 7 kts
2026-04-24 00:16 35.02292 -110.71702 4896 ft 8 kts 95°
2026-04-24 00:17 35.02319 -110.71658 4895 ft 8 kts 11°
2026-04-24 00:17 35.02385 -110.71652 4899 ft 13 kts 359°
2026-04-24 00:17 35.02454 -110.71656 4894 ft 0 kts 11°
2026-04-24 00:18 35.02470 -110.71672 4898 ft 6 kts 275°
2026-04-24 00:18 35.02459 -110.71711 4899 ft 0 kts 239°
2026-04-24 00:18 35.02453 -110.71723 4895 ft 9 kts 240°
2026-04-24 00:19 35.02369 -110.71913 4879 ft 50 kts 241°
2026-04-24 00:19 35.02149 -110.72366 4926 ft 68 kts 239°
2026-04-24 00:19 35.01897 -110.72911 5031 ft 79 kts 244°
2026-04-24 00:19 35.01618 -110.73576 5141 ft 96 kts 244°
2026-04-24 00:20 35.01324 -110.74378 5317 ft 105 kts 256°
2026-04-24 00:20 35.01406 -110.75244 5580 ft 110 kts 289°
2026-04-24 00:20 35.02050 -110.75856 5713 ft 132 kts 337°
2026-04-24 00:20 35.03014 -110.75736 5910 ft 149 kts 18°
2026-04-24 00:21 35.03718 -110.74790 6112 ft 162 kts 66°
2026-04-24 00:21 35.04068 -110.73476 6264 ft 162 kts 53°
2026-04-24 00:21 35.04928 -110.72670 6440 ft 156 kts 10°
2026-04-24 00:21 35.05933 -110.72794 6643 ft 143 kts 323°
2026-04-24 00:22 35.06479 -110.73711 6804 ft 134 kts 284°
2026-04-24 00:22 35.06764 -110.74824 6927 ft 141 kts 287°
2026-04-24 00:22 35.07138 -110.75974 7008 ft 150 kts 289°
2026-04-24 00:22 35.07530 -110.77184 7104 ft 156 kts 289°
2026-04-24 00:23 35.07902 -110.78439 7202 ft 159 kts 285°
2026-04-24 00:23 35.08234 -110.79759 7194 ft 165 kts 285°
2026-04-24 00:23 35.08322 -110.81152 7187 ft 167 kts 265°
2026-04-24 00:23 35.08356 -110.82547 7351 ft 157 kts 277°
2026-04-24 00:24 35.08589 -110.83838 7528 ft 154 kts 280°
2026-04-24 00:24 35.08836 -110.85090 7699 ft 153 kts 279°
2026-04-24 00:24 35.09075 -110.86307 7982 ft 144 kts 279°
2026-04-24 00:24 35.09310 -110.87516 8134 ft 149 kts 279°
2026-04-24 00:25 35.09537 -110.88741 8306 ft 151 kts 279°
2026-04-24 00:25 35.09805 -110.89987 8495 ft 151 kts 283°
2026-04-24 00:25 35.10128 -110.91222 8629 ft 155 kts 285°
2026-04-24 00:25 35.10431 -110.92497 8751 ft 156 kts 280°
2026-04-24 00:26 35.10695 -110.93738 9051 ft 146 kts 278°
2026-04-24 00:26 35.10578 -110.94926 9250 ft 144 kts 245°
2026-04-24 00:26 35.09986 -110.95948 9388 ft 149 kts 235°
2026-04-24 00:26 35.09343 -110.96961 9525 ft 153 kts 234°
2026-04-24 00:27 35.08690 -110.97987 9681 ft 154 kts 234°
2026-04-24 00:27 35.08009 -110.99014 9839 ft 155 kts 233°
2026-04-24 00:27 35.07318 -111.00006 10108 ft 148 kts 231°
2026-04-24 00:27 35.06622 -111.00938 10259 ft 152 kts 230°
2026-04-24 00:28 35.05826 -111.01817 10360 ft 158 kts 225°
2026-04-24 00:28 35.04991 -111.02721 10434 ft 165 kts 225°
2026-04-24 00:28 35.04104 -111.03615 10606 ft 162 kts 218°
2026-04-24 00:28 35.03156 -111.04356 10739 ft 163 kts 218°
2026-04-24 00:29 35.02204 -111.05126 10828 ft 167 kts 219°
2026-04-24 00:29 35.01258 -111.05946 10933 ft 166 kts 221°
2026-04-24 00:29 35.00356 -111.06807 11079 ft 165 kts 222°
2026-04-24 00:29 34.99445 -111.07687 11117 ft 170 kts 222°
2026-04-24 00:30 34.98501 -111.08529 11293 ft 165 kts 219°
2026-04-24 00:30 34.97434 -111.09024 11461 ft 170 kts 196°
2026-04-24 00:30 34.96228 -111.08921 11645 ft 173 kts 176°
2026-04-24 00:30 34.95068 -111.08609 11826 ft 174 kts 168°
2026-04-24 00:31 34.93889 -111.08262 11906 ft 175 kts 174°
2026-04-24 00:31 34.92700 -111.07976 12101 ft 173 kts 175°
2026-04-24 00:31 34.91514 -111.07728 12272 ft 173 kts 175°
2026-04-24 00:31 34.90317 -111.07494 12378 ft 177 kts 178°
2026-04-24 00:32 34.89074 -111.07262 12405 ft 183 kts 179°
2026-04-24 00:32 34.87791 -111.07083 12406 ft 189 kts 181°
2026-04-24 00:32 34.86475 -111.06957 12425 ft 192 kts 180°
2026-04-24 00:32 34.85126 -111.06834 12385 ft 196 kts 181°
2026-04-24 00:33 34.83766 -111.06701 12375 ft 197 kts 181°
2026-04-24 00:33 34.82398 -111.06589 12376 ft 198 kts 181°
2026-04-24 00:33 34.81029 -111.06443 12380 ft 197 kts 180°
2026-04-24 00:33 34.79684 -111.06306 12369 ft 191 kts 181°
2026-04-24 00:34 34.78378 -111.06180 12337 ft 186 kts 181°
2026-04-24 00:34 34.77107 -111.06057 12331 ft 181 kts 181°
2026-04-24 00:34 34.75861 -111.05926 12320 ft 178 kts 182°
2026-04-24 00:34 34.75135 -111.05816 12366 ft 175 kts 179°
2026-04-24 00:35 34.74393 -111.05664 12371 ft 174 kts 178°
2026-04-24 00:35 34.73198 -111.05444 12376 ft 173 kts 179°
2026-04-24 00:35 34.72009 -111.05226 12373 ft 173 kts 177°
2026-04-24 00:35 34.71502 -111.05142 12375 ft 173 kts 178°
2026-04-24 00:36 34.70674 -111.05002 12370 ft 172 kts 177°
2026-04-24 00:36 34.69494 -111.04790 12370 ft 171 kts 176°
2026-04-24 00:36 34.68329 -111.04578 12371 ft 172 kts 177°
2026-04-24 00:36 34.67150 -111.04349 12380 ft 172 kts 178°
2026-04-24 00:37 34.65969 -111.04116 12381 ft 172 kts 177°
2026-04-24 00:37 34.64787 -111.03899 12378 ft 171 kts 179°
2026-04-24 00:37 34.63608 -111.03686 12388 ft 172 kts 178°
2026-04-24 00:37 34.62428 -111.03485 12384 ft 171 kts 179°
2026-04-24 00:38 34.61253 -111.03225 12385 ft 172 kts 178°
2026-04-24 00:38 34.60073 -111.02966 12387 ft 173 kts 178°
2026-04-24 00:38 34.58890 -111.02706 12386 ft 172 kts 178°
2026-04-24 00:38 34.57706 -111.02448 12397 ft 174 kts 179°
2026-04-24 00:39 34.56512 -111.02188 12391 ft 175 kts 178°
2026-04-24 00:39 34.55313 -111.01931 12392 ft 175 kts 178°
2026-04-24 00:39 34.54112 -111.01689 12393 ft 175 kts 179°
2026-04-24 00:39 34.52912 -111.01445 12395 ft 175 kts 179°
2026-04-24 00:40 34.51712 -111.01191 12395 ft 176 kts 178°
2026-04-24 00:40 34.50520 -111.00807 12395 ft 177 kts 173°
2026-04-24 00:40 34.49335 -111.00409 12387 ft 176 kts 173°
2026-04-24 00:40 34.48156 -111.00009 12388 ft 175 kts 172°
2026-04-24 00:41 34.46993 -110.99618 12385 ft 170 kts 172°
2026-04-24 00:41 34.45852 -110.99233 12390 ft 172 kts 174°
2026-04-24 00:41 34.44691 -110.98840 12393 ft 174 kts 173°
2026-04-24 00:41 34.43527 -110.98447 12397 ft 174 kts 172°
2026-04-24 00:42 34.42361 -110.98043 12404 ft 175 kts 173°
2026-04-24 00:42 34.41188 -110.97637 12405 ft 175 kts 173°
2026-04-24 00:42 34.40020 -110.97248 12405 ft 174 kts 173°
2026-04-24 00:42 34.38852 -110.96856 12385 ft 174 kts 173°
2026-04-24 00:43 34.37677 -110.96480 12394 ft 176 kts 173°
2026-04-24 00:43 34.36493 -110.96103 12395 ft 176 kts 173°
2026-04-24 00:43 34.35309 -110.95721 12397 ft 176 kts 173°
2026-04-24 00:43 34.34137 -110.95345 12400 ft 177 kts 173°
2026-04-24 00:44 34.32951 -110.94969 12393 ft 176 kts 173°
2026-04-24 00:44 34.31765 -110.94593 12396 ft 177 kts 173°
2026-04-24 00:44 34.30570 -110.94213 12400 ft 179 kts 173°
2026-04-24 00:44 34.29368 -110.93839 12398 ft 178 kts 173°
2026-04-24 00:45 34.28170 -110.93471 12403 ft 178 kts 173°
2026-04-24 00:45 34.26974 -110.93099 12400 ft 177 kts 173°
2026-04-24 00:45 34.25783 -110.92728 12399 ft 177 kts 173°
2026-04-24 00:45 34.24588 -110.92361 12402 ft 178 kts 174°
2026-04-24 00:46 34.23395 -110.91994 12393 ft 176 kts 173°
2026-04-24 00:46 34.22205 -110.91629 12393 ft 177 kts 173°
2026-04-24 00:46 34.21018 -110.91269 12381 ft 175 kts 174°
2026-04-24 00:46 34.19828 -110.90906 12381 ft 177 kts 173°
2026-04-24 00:47 34.18630 -110.90546 12387 ft 179 kts 174°
2026-04-24 00:47 34.17418 -110.90182 12387 ft 179 kts 174°
2026-04-24 00:47 34.16211 -110.89821 12384 ft 179 kts 174°
2026-04-24 00:47 34.15001 -110.89464 12386 ft 179 kts 174°
2026-04-24 00:48 34.13785 -110.89107 12382 ft 180 kts 174°
2026-04-24 00:48 34.12570 -110.88781 12378 ft 176 kts 180°
2026-04-24 00:48 34.11366 -110.88722 12373 ft 172 kts 187°
2026-04-24 00:48 34.10161 -110.88670 12371 ft 173 kts 185°
2026-04-24 00:49 34.08956 -110.88608 12369 ft 174 kts 185°
2026-04-24 00:49 34.07751 -110.88543 12367 ft 173 kts 185°
2026-04-24 00:49 34.06555 -110.88474 12368 ft 172 kts 185°
2026-04-24 00:49 34.05358 -110.88412 12367 ft 173 kts 185°
2026-04-24 00:50 34.04155 -110.88366 12368 ft 173 kts 186°
2026-04-24 00:50 34.02950 -110.88330 12370 ft 174 kts 186°
2026-04-24 00:50 34.01741 -110.88297 12363 ft 174 kts 186°
2026-04-24 00:50 34.00547 -110.88263 12363 ft 174 kts 186°
2026-04-24 00:51 33.99337 -110.88228 12355 ft 173 kts 186°
2026-04-24 00:51 33.98136 -110.88196 12360 ft 173 kts 186°
2026-04-24 00:51 33.96933 -110.88170 12358 ft 173 kts 186°
2026-04-24 00:51 33.95732 -110.88147 12360 ft 173 kts 187°
2026-04-24 00:52 33.94530 -110.88120 12359 ft 172 kts 187°
2026-04-24 00:52 33.93327 -110.88096 12365 ft 173 kts 187°
2026-04-24 00:52 33.92116 -110.88068 12352 ft 175 kts 187°
2026-04-24 00:52 33.90896 -110.88013 12350 ft 176 kts 187°
2026-04-24 00:53 33.89676 -110.87959 12350 ft 175 kts 187°
2026-04-24 00:53 33.88462 -110.87902 12347 ft 174 kts 187°
2026-04-24 00:53 33.87265 -110.87841 12351 ft 172 kts 187°
2026-04-24 00:53 33.86074 -110.87782 12346 ft 171 kts 187°
2026-04-24 00:54 33.84885 -110.87720 12349 ft 171 kts 187°
2026-04-24 00:54 33.83688 -110.87659 12343 ft 172 kts 187°
2026-04-24 00:54 33.82516 -110.87592 12361 ft 168 kts 187°
2026-04-24 00:54 33.81335 -110.87542 12343 ft 170 kts 187°
2026-04-24 00:55 33.80150 -110.87494 12345 ft 171 kts 187°
2026-04-24 00:55 33.78960 -110.87422 12349 ft 171 kts 187°
2026-04-24 00:55 33.77813 -110.87359 12351 ft 170 kts 187°
2026-04-24 00:55 33.76636 -110.87312 12350 ft 170 kts 187°
2026-04-24 00:56 33.75454 -110.87264 12351 ft 170 kts 187°
2026-04-24 00:56 33.74261 -110.87220 12353 ft 172 kts 187°
2026-04-24 00:56 33.73069 -110.87178 12347 ft 172 kts 188°
2026-04-24 00:56 33.71876 -110.87138 12348 ft 171 kts 188°
2026-04-24 00:57 33.70685 -110.87098 12345 ft 170 kts 187°
2026-04-24 00:57 33.69507 -110.87064 12346 ft 170 kts 188°
2026-04-24 00:57 33.67300 -110.86968 12338 ft 170 kts 188°
2026-04-24 00:58 33.66131 -110.86894 12339 ft 168 kts 188°
2026-04-24 00:58 33.64966 -110.86819 12336 ft 167 kts 188°
2026-04-24 00:58 33.63814 -110.86737 12344 ft 166 kts 188°
2026-04-24 00:58 33.62649 -110.86662 12345 ft 169 kts 188°
2026-04-24 00:59 33.61469 -110.86597 12344 ft 171 kts 188°
2026-04-24 00:59 33.60278 -110.86534 12347 ft 172 kts 188°
2026-04-24 00:59 33.59485 -110.86491 12350 ft 173 kts 188°
2026-04-24 00:59 33.58287 -110.86426 12350 ft 172 kts 188°
2026-04-24 01:00 33.57099 -110.86384 12347 ft 169 kts 193°
2026-04-24 01:00 33.55935 -110.86496 12348 ft 168 kts 197°
2026-04-24 01:00 33.54776 -110.86628 12350 ft 167 kts 196°
2026-04-24 01:00 33.53613 -110.86763 12345 ft 168 kts 196°
2026-04-24 01:01 33.52449 -110.86900 12345 ft 168 kts 196°
2026-04-24 01:01 33.51307 -110.87083 12359 ft 162 kts 200°
2026-04-24 01:01 33.50195 -110.87261 12371 ft 160 kts 198°
2026-04-24 01:01 33.49106 -110.87447 12370 ft 159 kts 200°
2026-04-24 01:02 33.48016 -110.87664 12373 ft 159 kts 201°
2026-04-24 01:02 33.46917 -110.87881 12374 ft 161 kts 200°
2026-04-24 01:02 33.45507 -110.88375 12372 ft 156 kts 210°
2026-04-24 01:02 33.44831 -110.88646 12365 ft 153 kts 210°
2026-04-24 01:03 33.43823 -110.89057 12371 ft 153 kts 210°
2026-04-24 01:03 33.42807 -110.89476 12372 ft 155 kts 209°
2026-04-24 01:03 33.41783 -110.89911 12374 ft 156 kts 211°
2026-04-24 01:03 33.40752 -110.90342 12380 ft 158 kts 210°
2026-04-24 01:04 33.39713 -110.90777 12380 ft 158 kts 212°
2026-04-24 01:04 33.38718 -110.91319 12382 ft 159 kts 215°
2026-04-24 01:04 33.37723 -110.91895 12369 ft 157 kts 216°
2026-04-24 01:04 33.36748 -110.92457 12371 ft 154 kts 216°
2026-04-24 01:05 33.35785 -110.93007 12368 ft 152 kts 216°
2026-04-24 01:05 33.34825 -110.93561 12372 ft 154 kts 216°
2026-04-24 01:05 33.33863 -110.94118 12371 ft 154 kts 216°
2026-04-24 01:05 33.32895 -110.94679 12374 ft 155 kts 216°
2026-04-24 01:06 33.31938 -110.95237 12372 ft 156 kts 216°
2026-04-24 01:06 33.30941 -110.95827 12373 ft 159 kts 216°
2026-04-24 01:06 33.29966 -110.96410 12376 ft 159 kts 216°
2026-04-24 01:06 33.28972 -110.96998 12375 ft 156 kts 216°
2026-04-24 01:07 33.28019 -110.97560 12371 ft 154 kts 216°
2026-04-24 01:07 33.26986 -110.97998 12361 ft 159 kts 204°
2026-04-24 01:07 33.25915 -110.98287 12361 ft 160 kts 203°
2026-04-24 01:07 33.24828 -110.98563 12366 ft 161 kts 202°
2026-04-24 01:08 33.23712 -110.98784 12369 ft 163 kts 200°
2026-04-24 01:08 33.22590 -110.98997 12373 ft 164 kts 201°
2026-04-24 01:08 33.21467 -110.99218 12372 ft 164 kts 201°
2026-04-24 01:08 33.20333 -110.99441 12373 ft 166 kts 200°
2026-04-24 01:09 33.19192 -110.99661 12373 ft 167 kts 200°
2026-04-24 01:09 33.18030 -110.99822 12375 ft 168 kts 197°
2026-04-24 01:09 33.16878 -110.99966 12374 ft 165 kts 198°
2026-04-24 01:09 33.15736 -111.00094 12376 ft 165 kts 197°
2026-04-24 01:10 33.14581 -111.00176 12370 ft 168 kts 195°
2026-04-24 01:10 33.13412 -111.00246 12369 ft 168 kts 195°
2026-04-24 01:10 33.12256 -111.00332 12380 ft 167 kts 195°
2026-04-24 01:10 33.11086 -111.00422 12384 ft 169 kts 195°
2026-04-24 01:11 33.09912 -111.00516 12387 ft 169 kts 195°
2026-04-24 01:11 33.08738 -111.00611 12384 ft 169 kts 195°
2026-04-24 01:11 33.07568 -111.00705 12386 ft 168 kts 195°
2026-04-24 01:11 33.06411 -111.00844 12270 ft 167 kts 199°
2026-04-24 01:12 33.05273 -111.01078 12141 ft 167 kts 202°
2026-04-24 01:12 33.04106 -111.01280 11961 ft 171 kts 198°
2026-04-24 01:12 33.02925 -111.01455 11854 ft 171 kts 197°
2026-04-24 01:12 33.01749 -111.01610 11764 ft 169 kts 197°
2026-04-24 01:13 33.00585 -111.01801 11642 ft 170 kts 200°
2026-04-24 01:13 32.99407 -111.01989 11532 ft 171 kts 197°
2026-04-24 01:13 32.98227 -111.02155 11402 ft 172 kts 198°
2026-04-24 01:13 32.97050 -111.02356 11284 ft 170 kts 199°
2026-04-24 01:14 32.95882 -111.02553 11144 ft 170 kts 199°
2026-04-24 01:14 32.94703 -111.02751 10984 ft 172 kts 198°
2026-04-24 01:14 32.93523 -111.02943 10915 ft 170 kts 197°
2026-04-24 01:14 32.92344 -111.03069 10843 ft 170 kts 194°
2026-04-24 01:15 32.91160 -111.03197 10666 ft 173 kts 196°
2026-04-24 01:15 32.89972 -111.03391 10522 ft 172 kts 199°
2026-04-24 01:15 32.88781 -111.03614 10333 ft 173 kts 198°
2026-04-24 01:15 32.87595 -111.03856 10187 ft 173 kts 199°
2026-04-24 01:16 32.86407 -111.04086 10042 ft 174 kts 196°
2026-04-24 01:16 32.85218 -111.04259 9892 ft 175 kts 196°
2026-04-24 01:16 32.84020 -111.04458 9752 ft 173 kts 197°
2026-04-24 01:16 32.82832 -111.04697 9563 ft 174 kts 199°
2026-04-24 01:17 32.81640 -111.04980 9356 ft 176 kts 199°
2026-04-24 01:17 32.80443 -111.05269 9212 ft 174 kts 199°
2026-04-24 01:17 32.79264 -111.05575 9029 ft 175 kts 200°
2026-04-24 01:17 32.78060 -111.05872 8822 ft 177 kts 199°
2026-04-24 01:18 32.76866 -111.06165 8702 ft 174 kts 199°
2026-04-24 01:18 32.75676 -111.06446 8539 ft 175 kts 198°
2026-04-24 01:18 32.74479 -111.06755 8324 ft 176 kts 199°
2026-04-24 01:18 32.73227 -111.06666 8085 ft 189 kts 168°
2026-04-24 01:19 32.72049 -111.05947 7925 ft 191 kts 154°
2026-04-24 01:19 32.70920 -111.05140 7773 ft 189 kts 155°
2026-04-24 01:19 32.69767 -111.04386 7564 ft 189 kts 158°
2026-04-24 01:19 32.68581 -111.03665 7311 ft 192 kts 158°
2026-04-24 01:20 32.67396 -111.02951 7156 ft 190 kts 159°
2026-04-24 01:20 32.66221 -111.02272 7003 ft 187 kts 159°
2026-04-24 01:20 32.65043 -111.01623 6781 ft 186 kts 160°
2026-04-24 01:20 32.63850 -111.01024 6582 ft 186 kts 165°
2026-04-24 01:21 32.62652 -111.00526 6483 ft 180 kts 169°
2026-04-24 01:21 32.61446 -111.00153 6342 ft 178 kts 173°
2026-04-24 01:21 32.60247 -110.99856 6223 ft 175 kts 174°
2026-04-24 01:21 32.59070 -110.99567 6162 ft 170 kts 173°
2026-04-24 01:22 32.57896 -110.99269 6046 ft 176 kts 173°
2026-04-24 01:22 32.56670 -110.98959 5899 ft 182 kts 174°
2026-04-24 01:22 32.55434 -110.98736 5898 ft 175 kts 181°
2026-04-24 01:22 32.54238 -110.98679 5922 ft 170 kts 187°
2026-04-24 01:23 32.53049 -110.98720 5919 ft 170 kts 188°
2026-04-24 01:23 32.51860 -110.98824 5856 ft 173 kts 190°
2026-04-24 01:23 32.50661 -110.98974 5883 ft 172 kts 192°
2026-04-24 01:23 32.49469 -110.99177 5861 ft 172 kts 194°